Tracking 25648 objects as of 16-May-2022
HD Live streaming from Space Station
objects crossing your sky now

COSMOS 2251 DEB

Track COSMOS 2251 DEB now!
10-day predictions


NORAD ID: 37273
Int'l Code: 1993-036BHM
Perigee: 701.7 km
Apogee: 743.0 km
Inclination: 74.0 °
Period: 99.1 minutes
Semi major axis: 7093 km
RCS: 0.0105 m2 (small)
Launch date: June 16, 1993
Source: Commonwealth of Independent States (former USSR) (CIS)
Launch site: PLESETSK MISSILE AND SPACE COMPLEX (PKMTR)

Note: This is SATELLITE DEBRIS
aabbcc
Your satellite tracking list
Your tracking list is empty




NASA's NSSDC Master Catalog

Two Line Element Set (TLE):
1 37273U 93036BHM 22134.45953640  .00009804  00000-0  23560-2 0  9990
2 37273  74.0100  56.7968 0029096  77.9931 282.4490 14.53198993469054
Source of the keplerian elements: AFSPC